Location: Lafig�re
(44.4503°N, 4.0357°E)
Time: 01:46:40
(UTC+00:00)

Transit 4A - Pass Details

Date: 24 January 2021
Orbit: 866 x 979 km, 66.8° (Epoch: 24 February)

Event Time Altitude Azimuth Distance (km) Brightness Sun altitude
Rises 19:24:11 0° 227° (SW) 3,664 11.6 -28.8°
Reaches altitude 10° 19:26:49 10° 232° (SW) 2,723 10.9 -29.2°
Maximum altitude 19:33:03 53° 308° (NW) 1,194 8.6 -30.3°
Enters shadow 19:35:07 38° 359° (N) 1,447 8.8 -30.7°
Drops below altitude 10° 19:39:16 10° 25° (NNE) 2,716 - -31.4°
Sets 19:41:54 0° 30° (NNE) 3,655 - -31.9°
